Regional Weather Roundup
Issued by NWS

Home | Current Version | Previous Version | Text Only | Print | Product List | Glossary On
Versions: 1 2 3 4 5 6 7 8 9 10 11 12 13 14 15 16 17 18 19 20 21 22 23 24 25 26 27 28 29 30 31 32 33 34 35 36 37 38 39 40 41 42 43 44 45 46 47 48 49 50
000
ASUS45 KBOU 241607
RWRCO

WEATHER ROUNDUP FOR COLORADO
NATIONAL WEATHER SERVICE DENVER/BOULDER CO
900 AM MST FRI FEB 24 2017

NOTE: "FAIR" INDICATES FEW OR NO CLOUDS BELOW 12000 FEET WITH NO
SIGNIFICANT WEATHER AND/OR OBSTRUCTIONS TO VISIBILITY.

COZ001>005-013-030-031-241700-
...NORTHWEST COLORADO...

CITY           SKY/WX    TMP DP  RH WIND       PRES   REMARKS
CRAIG          LGT SNOW  17  11  77 W7        29.90R WCI   8
HAYDEN         CLOUDY    16   9  73 W12       29.86R VSB 1   WCI   3
MEEKER         LGT SNOW  21  17  84 CALM      29.87R FOG
MOUNT WERNER   NOT AVBL
STEAMBOAT SPGS CLOUDY    15  11  85 CALM      29.84S VSB 3/4
WALDEN         NOT AVBL
$$

COZ006>008-011-241700-
...WEST CENTRAL VALLEYS...

CITY           SKY/WX    TMP DP  RH WIND       PRES   REMARKS
GRAND JUNCTION FAIR      28  25  88 CALM      29.93R
MONTROSE       CLOUDY    26  15  63 NW10      29.93R WCI  16
EAGLE          PTSUNNY   21  14  73 NW7       29.87R WCI  13
RIFLE          CLOUDY    26  19  74 NW3       29.90R
DELTA          FAIR      27  18  67 CALM      29.93R
NUCLA          CLOUDY    28  18  64 NW5       29.94S WCI  23
$$

COZ017>023-064>068-241700-
...SOUTHWEST COLORADO...

CITY           SKY/WX    TMP DP  RH WIND       PRES   REMARKS
DURANGO        FAIR      26  14  60 W13       29.89R WCI  15
CORTEZ         FAIR      26  15  63 VRB3      29.92R
PAGOSA SPRINGS PTSUNNY   20  10  66 CALM      29.87R
TELLURIDE      LGT SNOW  13  10  89 SW5       29.81R WCI   5
WOLF CREEK PAS LGT SNOW   1   0  92 S8        29.74S WCI -12
$$

COZ009-010-012-014-032>034-037-058>063-241700-
...CENTRAL COLORADO...

CITY           SKY/WX    TMP DP  RH WIND       PRES   REMARKS
ASPEN          PTSUNNY   16   8  71 CALM      29.80R
BUENA VISTA    FAIR      23  -1  34 N12G18    29.77S WCI  12
COPPER MTN     SNOW       5  -4  66 MISG      29.63R VSB 1/2
BERTHOUD PASS  SNOW      -4 -13  65 N18G25    29.59R VSB 1/2 WCI -26
COTTONWOOD PAS FAIR      16  -4  41 SW15G25   29.70S WCI   1
GUNNISON       FAIR       6  -1  73 E7        29.85R WCI  -6
KREMMLING      CLOUDY    23  14  68 NW3       29.82R
LEADVILLE      PTSUNNY    8  -4  58 W13G25    29.70R WCI  -8
MONARCH PASS   CLOUDY     1  -4  78 W14       29.76R WCI -17
SALIDA         FAIR      27   2  33 W8        29.86S WCI  19
SUNLIGHT       NOT AVBL
WILKERSON PASS FAIR       5  -2  72 SW6       29.68R WCI  -6
$$

COZ069>075-241700-
...SAN LUIS VALLEY/SANGRE DE CRISTO MOUNTAINS...

CITY           SKY/WX    TMP DP  RH WIND       PRES   REMARKS
ALAMOSA        FAIR      22   7  52 NE3       29.82R
LA VETA PASS   CLOUDY    14   5  67 S13G22    29.74S WCI   0
SAGUACHE       FAIR      21   7  53 NW13      29.81S WCI   9
$$

COZ035-036-038>040-241700-
...NORTHERN COLORADO FRONT RANGE...

CITY           SKY/WX    TMP DP  RH WIND       PRES   REMARKS
DENVER INTL AP LGT SNOW  18  13  80 E5        29.93S VSB 3/4 WCI  11
DMNS CITY PARK   N/A     20  14  78 MISG      29.94S
AURORA         LGT SNOW  18  15  90 NE8       29.93R FOG     WCI   7
FRONT RANGE AP LGT SNOW  19  18  93 N5        29.94R VSB 1   WCI  13
ERIE MUNI ARPT LGT SNOW  22  17  79 CALM      29.96R
BOULDER MUN AP LGT SNOW  21  18  86 CALM      29.94S
CENTENNIAL     FLURRIES  18  13  80 NE3       29.91R
BROOMFIELD     LGT SNOW  19  16  86 N3        29.93R
FORT COLLINS   LGT SNOW  21  16  81 NE8       29.97R WCI  11
LONGMONT       LGT SNOW  25  17  71 CALM      29.98R
$$

COZ041-046-047-076>085-087-088-241700-
...PIKES PEAK/PALMER DIVIDE AND SOUTHERN FOOTHILLS...

CITY           SKY/WX    TMP DP  RH WIND       PRES   REMARKS
COLO. SPRINGS  PTSUNNY   21   7  54 N7        29.90R WCI  12
A. F. ACADEMY  PTSUNNY   19   7  58 N13       29.86S WCI   7
SCHRIEVER AFB  PTSUNNY   19   8  62 N9        29.89S WCI   9
ELLICOTT       CLOUDY   N/A N/A N/A N12         N/A
FALCON         FLURRIES  17   9  70 N8        29.87R WCI   6
FORT CARSON    CLOUDY    20  10  62 N6        29.90R WCI  13
LIMON          CLOUDY    18  14  84 N12       29.92R WCI   5
MONUMENT HILL  LGT SNOW  12  10  92 NW5       29.86R WCI   4
TRINIDAD       CLOUDY    20  12  71 E8        29.91R WCI  10
$$

COZ042>045-048>051-090-091-241700-
...NORTHEAST COLORADO...

CITY           SKY/WX    TMP DP  RH WIND       PRES   REMARKS
GREELEY ARPT   LGT SNOW  21  17  84 N6        29.99R VSB 1   WCI  13
AKRON          CLOUDY    19  15  84 N13       29.95R FOG     WCI   6
BURLINGTON     CLOUDY    23  18  81 N15G24    29.95R WCI  10
WRAY           NOT AVBL
STERLING       NOT AVBL
HOLYOKE        FAIR      27  21  80 N13       29.98R HAZE    WCI  16
FORT MORGAN    LGT SNOW  22  17  81 NE5       29.98R WCI  15
$$

COZ086-089-092>099-241700-
...SOUTHEAST COLORADO...

CITY           SKY/WX    TMP DP  RH WIND       PRES   REMARKS
PUEBLO         CLOUDY    25  12  58 NE6       29.96R WCI  18
LA JUNTA       FAIR      29  13  51 N16       29.98R WCI  17
LAMAR          CLOUDY    28  15  58 N13       29.97R WCI  17
SPRINGFIELD      N/A     28  14  55 N24G31    29.93R WCI  14
$$



USA.gov is the U.S. government's official web portal to all federal, state and local government web resources and services.